[Iaude] MPEC T214: 2019 AV3 [a=1.85,e=0.44,i=5.9,H=23.43]
    mpec at marsden.cfa.harvard.edu 
    mpec at marsden.cfa.harvard.edu
       
    Fri Oct 13 10:15:01 EDT 2023
    
    
  
M.P.E.C. 2023-T214                             Issued 2023 October 13, 14:13 UT
     The Minor Planet Electronic Circulars contain information on unusual
         minor planets, routine data on comets and natural satellites,
         and occasional editorial announcements.  They are published
    on behalf of Division F of the International Astronomical Union by the
          Minor Planet Center, Smithsonian Astrophysical Observatory,
                          Cambridge, MA 02138, U.S.A.
			  
             Prepared using the Tamkin Foundation Computer Network
                              MPC at CFA.HARVARD.EDU
            URL https://www.minorplanetcenter.net/    ISSN 1523-6714
                                    2019 AV3                                    
                           Revision to MPEC 2019-A92                            
Additional Observations:
     K19A03V  C2014 01 09.53257109 28 30.388+02 45 55.76         22.84GVET214F51
     K19A03V  C2014 01 09.54694709 28 29.347+02 46 15.60         21.99GVET214F51
     K19A03V  C2014 01 09.56130909 28 28.276+02 46 35.96         22.38GVET214F51
     K19A03V  C2014 01 25.39230109 08 38.593+09 09 53.11         22.13GVET214F51
     K19A03V  C2014 01 25.40385709 08 37.587+09 10 09.28         22.18GVET214F51
     K19A03V  C2014 01 25.41538109 08 36.597+09 10 25.51         22.95GVET214F51
     K19A03V  C2014 01 25.42687909 08 35.575+09 10 41.98         22.93GVET214F51
     K19A03V  C2023 08 19.53589722 19 11.690-10 38 28.99         22.22GVET214F52
     K19A03V  C2023 08 24.41011422 16 21.480-12 12 57.09         21.84GVET214F52
     K19A03V  C2023 08 24.41780222 16 21.074-12 13 07.00         22.18GVET214F52
     K19A03V  C2023 09 04.39937422 07 57.591-16 42 54.98         21.73GVET214F51
     K19A03V  C2023 09 04.41096822 07 56.868-16 43 14.23         22.07GVET214F51
     K19A03V  C2023 09 04.43455122 07 55.384-16 43 53.78         21.44GVET214F51
     K19A03V  C2023 09 07.39140122 05 24.666-18 08 43.60         21.63GVET214F51
     K19A03V  C2023 09 07.40304322 05 23.925-18 09 04.15         22.13GVET214F51
     K19A03V  C2023 09 07.42627122 05 22.412-18 09 44.84         21.40GVET214F51
     K19A03V  C2023 09 09.34479122 03 45.165-19 07 05.71         21.33GVET214F52
     K19A03V  C2023 09 09.37734322 03 43.072-19 08 05.14         21.85GVET214F52
     K19A03V  C2023 09 12.36310322 01 13.500-20 40 25.28         21.64GVET214F51
     K19A03V  C2023 09 12.37431422 01 12.794-20 40 46.36         21.62GVET214F51
     K19A03V  C2023 09 12.38552822 01 12.076-20 41 07.17         21.83GVET214F51
     K19A03V  C2023 09 12.39674022 01 11.393-20 41 28.61         21.88GVET214F51
     K19A03V  C2023 09 14.26512421 59 43.514-21 40 48.11         21.61GVET214F52
     K19A03V  C2023 09 14.27851821 59 42.758-21 41 14.49         22.04GVET214F52
     K19A03V  C2023 09 14.29195721 59 41.954-21 41 41.15         21.66GVET214F52
     K19A03V  C2023 09 14.30540121 59 41.152-21 42 07.12         21.58GVET214F52
     K19A03V  C2023 10 06.26585221 54 22.832-33 46 15.90         21.79GVET214F51
     K19A03V  C2023 10 09.26964121 56 30.701-35 22 49.75         21.48wXET214F51
     K19A03V  C2023 10 09.27802821 56 30.932-35 23 06.15         21.14wXET214F51
     K19A03V  C2023 10 09.28639821 56 31.247-35 23 22.39         21.95wXET214F51
     K19A03V  C2023 10 09.29473821 56 31.476-35 23 37.78         22.06wXET214F51
Observer details:
F51 Pan-STARRS 1, Haleakala.  Observers J. Bulger, T. Lowe, P. Minguez, A.
    Schultz, I. Smith.  Measurers K. Chambers, T. de Boer, J. Fairlamb, H.
    Gao, M. Huber, C.-C. Lin, E. Magnier, Y. Ramanjooloo, R. Wainscoat, R.
    Weryk, J. Bulger, T. Lowe, P. Minguez, A. Schultz, I. Smith.  1.8-m
    Ritchey-Chretien + CCD.
F52 Pan-STARRS 2, Haleakala.  Observers J. Bulger, T. Lowe, P. Minguez, A.
    Schultz, I. Smith.  Measurers K. Chambers, T. de Boer, J. Fairlamb, H.
    Gao, M. Huber, C.-C. Lin, E. Magnier, Y. Ramanjooloo, R. Wainscoat, R.
    Weryk.  1.8-m Ritchey-Chretien + CCD.
First and last observations above in comparison with prediction:
Residuals in seconds of arc (or zero decimals in degrees), reference and Delta-T
140109 F51   17-    1-    231009 F51   18-    6-    MPO467326   +5.56 days
Orbital elements:
2019 AV3                                                 Earth MOID = 0.1051 AU
Epoch 2023 Sept. 13.0 TT = JDT 2460200.5                Veres                   
M 334.14147              (2000.0)            P               Q                  
n   0.39271687     Peri.  262.63792     +0.63922077     -0.76703502             
a   1.8467850      Node   147.41793     +0.73984346     +0.59376847             
e   0.4449047      Incl.    5.89029     +0.20982959     +0.24309726             
P   2.51           H   23.43          G   0.15           U   0                  
Residuals in seconds of arc
140109 F51  0.2-  0.4+    190106 H21  0.0   0.2+    230909 F52  0.1+  0.2+
140109 F51  0.2+  0.2-    190109 691  0.0   0.1+    230909 F52  0.0   0.3+
140109 F51  0.2+  0.3-    190109 691  0.3-  0.7+    230912 F51  0.0   0.1-
140125 F51  0.0   0.1+    190109 691  0.0   0.0     230912 F51  0.0   0.1+
140125 F51  0.0   0.1-    190126 V06  0.0   0.3+    230912 F51  0.2-  0.4+
140125 F51  0.2+  0.1-    190126 V06  0.1+  0.0     230912 F51  0.1+  0.1+
140125 F51  0.0   0.2+    190126 V06  0.0   0.1+    230914 F52  0.3-  0.1+
180817 F51  0.1+  0.0     190126 V06  0.4+  0.1+    230914 F52  0.1+  0.0
180916 G96  0.3-  0.2-    230819 F52  0.0   0.1+    230914 F52  0.1-  0.3-
180916 G96  0.2+  0.0     230824 F52  0.2+  0.0     230914 F52  0.1-  0.0
190104 F51  0.2+  0.2+    230824 F52  0.3-  0.1-    231006 F51  0.1+  0.0
190104 F51  0.3+  0.1+    230904 F51  0.1-  0.2-    231009 F51  0.2+  0.0
190104 F51  0.2+  0.1-    230904 F51  0.0   0.0     231009 F51  0.2-  0.2-
190105 807  0.4-  0.4-    230904 F51  0.1-  0.2-    231009 F51  0.4+  0.3-
190105 807  0.4-  0.3-    230907 F51  0.0   0.0     231009 F51  0.1+  0.4+
190106 H21  0.0   0.4+    230907 F51  0.0   0.0
190106 H21  0.1+  0.1+    230907 F51  0.4-  0.1+
Ephemeris:
2019 AV3                 a,e,i = 1.85, 0.44, 6                   q = 1.0251
Date    TT    R. A. (2000) Decl.     Delta      r    Elong.  Phase     V
2023 09 13    22 00 42.4 -21 00 08   0.2643  1.2494   154.0    20.7    22.0
...
2023 09 28    21 52 43.9 -29 13 56   0.2236  1.1684   133.9    38.2    22.0
...
2023 10 06    21 54 13.3 -33 37 04   0.2077  1.1303   124.3    46.9    22.1
...
2023 10 12    21 59 17.1 -36 48 35   0.1971  1.1046   118.0    52.9    22.1
2023 10 13    22 00 31.3 -37 19 52   0.1954  1.1006   117.0    53.9    22.1
2023 10 14    22 01 53.0 -37 50 56   0.1937  1.0967   116.1    54.8    22.1
...
2023 10 20    22 12 52.3 -40 52 47   0.1837  1.0751   110.8    60.0    22.1
...
2023 10 28    22 36 20.3 -44 40 22   0.1704  1.0517   105.3    65.7    22.0
...
2023 11 12    23 56 27.5 -49 57 36   0.1464  1.0273   100.7    71.3    21.8
A. U. Tomatic                (C) Copyright 2023 MPC           M.P.E.C. 2023-T214
    
    
More information about the Iaude
mailing list